User: anonymous   Login
Location: Unspecified
(0.0000°N, 0.0000°E)
Time: 14:52:36
(UTC+00:00)
Language:

Cosmos 2491 - Orbit

View from above orbital plane
View from above orbital plane
View from above satellite
View from above satellite

Ground track
Ground track

The orbit data is extracted from the following two-line orbital elements,

1 39497U 13076E   17351.46780484  .00000024  00000-0  10000-3 0  9997
2 39497  82.4853 303.4900 0018352  30.5623 329.6522 12.42674902180321
Epoch (UTC): 17 December 2017 11:13:38
Eccentricity: 0.0018352
inclination: 82.4853°
perigee height: 1481 km
apogee height: 1510 km
right ascension of ascending node: 303.4900°
argument of perigee: 30.5623°
revolutions per day: 12.42674902
mean anomaly at epoch: 329.6522°
orbit number at epoch: 18032

The dashed part of the orbit path shows where the satellite is in the earth's shadow,  

DLR